Time,TemperatureF,DewpointF,PressureIn,WindDirection,WindDirectionDegrees,WindSpeedMPH,WindSpeedGustMPH,Humidity,HourlyPrecipIn,Conditions,Clouds,dailyrainin,SolarRadiationWatts/m^2,SoftwareType,DateUTC
2013-03-05 00:00:00,32.7,30.1,29.76,East,88,0.0,0.0,90,0.00,CLR,,0.00,0.0,WeatherDisplay:10.37,2013-03-05 00:00:00,
2013-03-05 00:05:00,32.6,30.3,29.76,East,89,0.0,0.0,91,0.00,CLR,,0.00,0.0,WeatherDisplay:10.37,2013-03-05 00:05:00,
2013-03-05 00:10:00,32.5,30.2,29.76,East,88,0.0,0.0,91,0.00,CLR,,0.00,0.0,WeatherDisplay:10.37,2013-03-05 00:10:00,
2013-03-05 00:15:00,32.4,30.1,29.76,East,89,0.0,0.0,91,0.00,CLR,,0.00,0.0,WeatherDisplay:10.37,2013-03-05 00:15:00,
2013-03-05 00:20:00,32.3,30.0,29.76,East,89,0.0,0.0,91,0.00,CLR,,0.00,0.0,WeatherDisplay:10.37,2013-03-05 00:20:00,
2013-03-05 00:25:00,32.1,29.8,29.76,East,89,0.0,0.0,91,0.00,CLR,,0.00,0.0,WeatherDisplay:10.37,2013-03-05 00:25:00,
2013-03-05 00:30:00,32.1,29.8,29.76,East,88,0.0,0.0,91,0.00,CLR,,0.00,0.0,WeatherDisplay:10.37,2013-03-05 00:30:00,
2013-03-05 00:35:00,32.0,29.7,29.76,East,89,0.0,0.0,91,0.00,CLR,,0.00,0.0,WeatherDisplay:10.37,2013-03-05 00:35:00,
2013-03-05 00:40:00,31.9,29.6,29.76,East,89,0.0,0.0,91,0.00,CLR,,0.00,0.0,WeatherDisplay:10.37,2013-03-05 00:40:00,
2013-03-05 00:45:00,31.8,29.5,29.76,East,88,0.0,0.0,91,0.00,CLR,,0.00,0.0,WeatherDisplay:10.37,2013-03-05 00:45:00,
2013-03-05 00:50:00,31.7,29.4,29.76,East,88,0.0,0.0,91,0.00,CLR,,0.00,0.0,WeatherDisplay:10.37,2013-03-05 00:50:00,
2013-03-05 00:55:00,31.6,29.3,29.76,East,89,0.0,0.0,91,0.00,CLR,,0.00,0.0,WeatherDisplay:10.37,2013-03-05 00:55:00,
2013-03-05 01:00:00,31.5,29.2,29.75,East,88,0.0,0.0,91,0.00,CLR,,0.00,0.0,WeatherDisplay:10.37,2013-03-05 01:00:00,
2013-03-05 01:05:00,31.5,29.2,29.75,East,89,0.0,0.0,91,0.00,CLR,,0.00,0.0,WeatherDisplay:10.37,2013-03-05 01:05:00,
2013-03-05 01:10:00,31.4,29.1,29.75,East,89,0.0,0.0,91,0.00,CLR,,0.00,0.0,WeatherDisplay:10.37,2013-03-05 01:10:00,
2013-03-05 01:15:00,31.2,28.9,29.75,East,89,0.0,0.0,91,0.00,CLR,,0.00,0.0,WeatherDisplay:10.37,2013-03-05 01:15:00,
2013-03-05 01:20:00,31.2,28.9,29.75,East,89,0.0,0.0,91,0.00,CLR,,0.00,0.0,WeatherDisplay:10.37,2013-03-05 01:20:00,
2013-03-05 01:25:00,31.1,28.8,29.75,East,89,0.0,0.0,91,0.00,CLR,,0.00,0.0,WeatherDisplay:10.37,2013-03-05 01:25:00,
2013-03-05 01:30:00,31.1,29.0,29.75,East,89,0.0,0.0,92,0.00,CLR,,0.00,0.0,WeatherDisplay:10.37,2013-03-05 01:30:00,
2013-03-05 01:35:00,31.0,28.7,29.75,East,89,0.0,0.0,91,0.00,CLR,,0.00,0.0,WeatherDisplay:10.37,2013-03-05 01:35:00,
2013-03-05 01:40:00,30.8,28.8,29.75,East,88,0.0,0.0,92,0.00,CLR,,0.00,0.0,WeatherDisplay:10.37,2013-03-05 01:40:00,
2013-03-05 01:45:00,30.8,28.8,29.75,East,89,0.0,0.0,92,0.00,CLR,,0.00,0.0,WeatherDisplay:10.37,2013-03-05 01:45:00,
2013-03-05 01:50:00,30.7,28.7,29.75,East,89,0.0,0.0,92,0.00,CLR,,0.00,0.0,WeatherDisplay:10.37,2013-03-05 01:50:00,
2013-03-05 01:55:00,30.6,28.6,29.75,East,88,0.0,0.0,92,0.00,CLR,,0.00,0.0,WeatherDisplay:10.37,2013-03-05 01:55:00,
2013-03-05 02:00:00,30.5,28.5,29.74,East,89,0.0,0.0,92,0.00,CLR,,0.00,0.0,WeatherDisplay:10.37,2013-03-05 02:00:00,
2013-03-05 02:05:00,30.5,28.5,29.74,East,89,0.0,0.0,92,0.00,CLR,,0.00,0.0,WeatherDisplay:10.37,2013-03-05 02:05:00,
2013-03-05 02:10:00,30.5,28.5,29.74,East,89,0.0,0.0,92,0.00,CLR,,0.00,0.0,WeatherDisplay:10.37,2013-03-05 02:10:00,
2013-03-05 02:15:00,30.4,28.4,29.74,East,88,0.0,0.0,92,0.00,CLR,,0.00,0.0,WeatherDisplay:10.37,2013-03-05 02:15:00,
2013-03-05 02:20:00,30.3,28.3,29.74,East,89,0.0,0.0,92,0.00,CLR,,0.00,0.0,WeatherDisplay:10.37,2013-03-05 02:20:00,
2013-03-05 02:25:00,30.3,28.3,29.74,East,89,0.0,0.0,92,0.00,CLR,,0.00,0.0,WeatherDisplay:10.37,2013-03-05 02:25:00,
2013-03-05 02:30:00,30.2,28.2,29.74,East,89,0.0,0.0,92,0.00,CLR,,0.00,0.0,WeatherDisplay:10.37,2013-03-05 02:30:00,
2013-03-05 02:35:00,30.1,28.1,29.74,East,88,0.0,0.0,92,0.00,CLR,,0.00,0.0,WeatherDisplay:10.37,2013-03-05 02:35:00,
2013-03-05 02:40:00,29.9,27.9,29.73,East,89,0.0,0.0,92,0.00,CLR,,0.00,0.0,WeatherDisplay:10.37,2013-03-05 02:40:00,
2013-03-05 02:45:00,29.8,27.8,29.73,East,89,0.0,0.0,92,0.00,CLR,,0.00,0.0,WeatherDisplay:10.37,2013-03-05 02:45:00,
2013-03-05 02:50:00,29.8,27.8,29.73,East,88,0.0,0.0,92,0.00,CLR,,0.00,0.0,WeatherDisplay:10.37,2013-03-05 02:50:00,
2013-03-05 02:55:00,29.8,27.8,29.73,East,88,0.0,0.0,92,0.00,CLR,,0.00,0.0,WeatherDisplay:10.37,2013-03-05 02:55:00,
2013-03-05 03:00:00,29.9,27.9,29.73,East,89,0.0,0.0,92,0.00,CLR,,0.00,0.0,WeatherDisplay:10.37,2013-03-05 03:00:00,
2013-03-05 03:05:00,29.9,28.1,29.73,East,89,0.0,0.0,93,0.00,CLR,,0.00,0.0,WeatherDisplay:10.37,2013-03-05 03:05:00,
2013-03-05 03:10:00,30.0,28.2,29.73,East,88,1.2,0.0,93,0.00,CLR,,0.00,0.0,WeatherDisplay:10.37,2013-03-05 03:10:00,
2013-03-05 03:15:00,29.9,28.1,29.73,East,89,0.0,0.0,93,0.00,CLR,,0.00,0.0,WeatherDisplay:10.37,2013-03-05 03:15:00,
2013-03-05 03:20:00,29.9,28.1,29.73,East,89,0.0,0.0,93,0.00,CLR,,0.00,0.0,WeatherDisplay:10.37,2013-03-05 03:20:00,
2013-03-05 03:25:00,29.8,28.0,29.73,East,88,0.0,0.0,93,0.00,CLR,,0.00,0.0,WeatherDisplay:10.37,2013-03-05 03:25:00,
2013-03-05 03:30:00,29.8,28.0,29.73,East,88,0.0,0.0,93,0.00,CLR,,0.00,0.0,WeatherDisplay:10.37,2013-03-05 03:30:00,
2013-03-05 03:35:00,29.7,27.9,29.73,East,88,0.0,0.0,93,0.00,CLR,,0.00,0.0,WeatherDisplay:10.37,2013-03-05 03:35:00,
2013-03-05 03:40:00,29.6,27.8,29.72,East,89,0.0,0.0,93,0.00,CLR,,0.00,0.0,WeatherDisplay:10.37,2013-03-05 03:40:00,
2013-03-05 03:45:00,29.5,27.7,29.72,East,89,0.0,0.0,93,0.00,CLR,,0.00,0.0,WeatherDisplay:10.37,2013-03-05 03:45:00,
2013-03-05 03:50:00,29.6,27.8,29.72,East,88,0.0,0.0,93,0.00,CLR,,0.00,0.0,WeatherDisplay:10.37,2013-03-05 03:50:00,
2013-03-05 03:55:00,29.6,27.8,29.72,East,89,0.0,0.0,93,0.00,CLR,,0.00,0.0,WeatherDisplay:10.37,2013-03-05 03:55:00,
2013-03-05 04:00:00,29.6,27.8,29.72,East,88,0.0,0.0,93,0.00,CLR,,0.00,0.0,WeatherDisplay:10.37,2013-03-05 04:00:00,
2013-03-05 04:05:00,29.6,27.8,29.72,East,88,0.0,0.0,93,0.00,CLR,,0.00,0.0,WeatherDisplay:10.37,2013-03-05 04:05:00,
2013-03-05 04:10:00,29.6,27.8,29.72,East,89,0.0,0.0,93,0.00,CLR,,0.00,0.0,WeatherDisplay:10.37,2013-03-05 04:10:00,
2013-03-05 04:15:00,29.5,27.7,29.72,East,89,0.0,0.0,93,0.00,CLR,,0.00,0.0,WeatherDisplay:10.37,2013-03-05 04:15:00,
2013-03-05 04:20:00,29.6,27.8,29.72,East,89,0.0,0.0,93,0.00,CLR,,0.00,0.0,WeatherDisplay:10.37,2013-03-05 04:20:00,
2013-03-05 04:25:00,29.5,27.7,29.72,East,88,0.0,0.0,93,0.00,CLR,,0.00,0.0,WeatherDisplay:10.37,2013-03-05 04:25:00,
2013-03-05 04:30:00,29.4,27.6,29.72,East,89,0.0,0.0,93,0.00,CLR,,0.00,0.0,WeatherDisplay:10.37,2013-03-05 04:30:00,
2013-03-05 04:35:00,29.4,27.6,29.72,East,89,0.0,0.0,93,0.00,CLR,,0.00,0.0,WeatherDisplay:10.37,2013-03-05 04:35:00,
2013-03-05 04:40:00,29.4,27.6,29.72,East,88,0.0,0.0,93,0.00,CLR,,0.00,0.0,WeatherDisplay:10.37,2013-03-05 04:40:00,
2013-03-05 04:45:00,29.4,27.6,29.72,East,89,0.0,0.0,93,0.00,CLR,,0.00,0.0,WeatherDisplay:10.37,2013-03-05 04:45:00,
2013-03-05 04:50:00,29.4,27.6,29.72,East,89,0.0,0.0,93,0.00,CLR,,0.00,0.0,WeatherDisplay:10.37,2013-03-05 04:50:00,
2013-03-05 04:55:00,29.4,27.6,29.72,East,89,0.0,0.0,93,0.00,CLR,,0.00,0.0,WeatherDisplay:10.37,2013-03-05 04:55:00,
2013-03-05 05:00:00,29.4,27.6,29.72,East,89,0.0,0.0,93,0.00,CLR,,0.00,0.0,WeatherDisplay:10.37,2013-03-05 05:00:00,
2013-03-05 05:05:00,29.4,27.6,29.72,East,88,0.0,0.0,93,0.00,CLR,,0.00,0.0,WeatherDisplay:10.37,2013-03-05 05:05:00,
2013-03-05 05:10:00,29.3,27.5,29.71,East,89,0.0,0.0,93,0.00,CLR,,0.00,0.0,WeatherDisplay:10.37,2013-03-05 05:10:00,
2013-03-05 05:15:00,29.3,27.5,29.71,East,89,0.0,0.0,93,0.00,CLR,,0.00,0.0,WeatherDisplay:10.37,2013-03-05 05:15:00,
2013-03-05 05:20:00,29.2,27.4,29.71,East,88,0.0,0.0,93,0.00,CLR,,0.00,0.0,WeatherDisplay:10.37,2013-03-05 05:20:00,
2013-03-05 05:25:00,29.2,27.4,29.71,East,88,0.0,0.0,93,0.00,CLR,,0.00,0.0,WeatherDisplay:10.37,2013-03-05 05:25:00,
2013-03-05 05:30:00,29.2,27.4,29.71,East,88,0.0,0.0,93,0.00,CLR,,0.00,0.0,WeatherDisplay:10.37,2013-03-05 05:30:00,
2013-03-05 05:35:00,29.2,27.4,29.71,East,89,0.0,0.0,93,0.00,CLR,,0.00,0.0,WeatherDisplay:10.37,2013-03-05 05:35:00,
2013-03-05 05:40:00,29.1,27.3,29.71,East,89,0.0,0.0,93,0.00,CLR,,0.00,0.0,WeatherDisplay:10.37,2013-03-05 05:40:00,
2013-03-05 05:45:00,29.0,27.2,29.72,East,89,0.0,0.0,93,0.00,CLR,,0.00,0.0,WeatherDisplay:10.37,2013-03-05 05:45:00,
2013-03-05 05:50:00,28.9,27.4,29.72,East,89,0.0,0.0,94,0.00,CLR,,0.00,0.0,WeatherDisplay:10.37,2013-03-05 05:50:00,
2013-03-05 05:55:00,29.0,27.2,29.72,East,89,0.0,0.0,93,0.00,CLR,,0.00,0.0,WeatherDisplay:10.37,2013-03-05 05:55:00,
2013-03-05 06:00:00,29.0,27.2,29.72,East,89,0.0,0.0,93,0.00,CLR,,0.00,0.0,WeatherDisplay:10.37,2013-03-05 06:00:00,
2013-03-05 06:05:00,28.9,27.1,29.72,East,88,0.0,0.0,93,0.00,CLR,,0.00,0.0,WeatherDisplay:10.37,2013-03-05 06:05:00,
2013-03-05 06:10:00,28.9,27.4,29.71,East,88,0.0,0.0,94,0.00,OVC,,0.00,0.0,WeatherDisplay:10.37,2013-03-05 06:10:00,
2013-03-05 06:15:00,28.9,27.4,29.72,East,89,0.0,0.0,94,0.00,OVC,,0.00,0.0,WeatherDisplay:10.37,2013-03-05 06:15:00,
2013-03-05 06:20:00,28.8,27.3,29.72,East,89,0.0,0.0,94,0.00,OVC,,0.00,0.0,WeatherDisplay:10.37,2013-03-05 06:20:00,
2013-03-05 06:25:00,28.8,27.3,29.71,East,89,0.0,0.0,94,0.00,OVC,,0.00,0.0,WeatherDisplay:10.37,2013-03-05 06:25:00,
2013-03-05 06:30:00,28.8,27.3,29.72,East,89,0.0,0.0,94,0.00,OVC,,0.00,0.0,WeatherDisplay:10.37,2013-03-05 06:30:00,
2013-03-05 06:35:00,28.7,27.2,29.72,East,89,0.0,0.0,94,0.00,OVC,,0.00,0.0,WeatherDisplay:10.37,2013-03-05 06:35:00,
2013-03-05 06:40:00,28.7,27.2,29.72,East,88,0.0,0.0,94,0.00,OVC,,0.00,5.0,WeatherDisplay:10.37,2013-03-05 06:40:00,
2013-03-05 06:45:00,28.7,27.2,29.72,East,89,0.0,0.0,94,0.00,OVC,,0.00,7.0,WeatherDisplay:10.37,2013-03-05 06:45:00,
2013-03-05 06:50:00,28.6,27.1,29.72,East,89,0.0,0.0,94,0.00,OVC,,0.00,9.0,WeatherDisplay:10.37,2013-03-05 06:50:00,
2013-03-05 06:55:00,28.6,27.1,29.72,East,89,0.0,0.0,94,0.00,CLR,,0.00,12.0,WeatherDisplay:10.37,2013-03-05 06:55:00,
2013-03-05 07:00:00,28.5,27.0,29.72,East,89,0.0,0.0,94,0.00,CLR,,0.00,16.0,WeatherDisplay:10.37,2013-03-05 07:00:00,
2013-03-05 07:05:00,28.6,27.1,29.72,East,88,0.0,0.0,94,0.00,FEW,,0.00,19.0,WeatherDisplay:10.37,2013-03-05 07:05:00,
2013-03-05 07:10:00,28.6,27.1,29.72,East,89,0.0,0.0,94,0.00,SCT,,0.00,25.0,WeatherDisplay:10.37,2013-03-05 07:10:00,
2013-03-05 07:15:00,28.6,27.1,29.73,East,89,0.0,0.0,94,0.00,SCT,,0.00,30.0,WeatherDisplay:10.37,2013-03-05 07:15:00,
2013-03-05 07:20:00,28.8,27.3,29.72,East,89,0.0,0.0,94,0.00,FEW,,0.00,39.0,WeatherDisplay:10.37,2013-03-05 07:20:00,
2013-03-05 07:25:00,28.9,27.4,29.72,East,89,0.0,0.0,94,0.00,FEW,,0.00,46.0,WeatherDisplay:10.37,2013-03-05 07:25:00,
2013-03-05 07:30:00,29.0,27.5,29.72,East,89,0.0,0.0,94,0.00,FEW,,0.00,54.0,WeatherDisplay:10.37,2013-03-05 07:30:00,
2013-03-05 07:35:00,29.3,27.8,29.72,East,88,0.0,0.0,94,0.00,FEW,,0.00,63.0,WeatherDisplay:10.37,2013-03-05 07:35:00,
2013-03-05 07:40:00,29.5,28.0,29.72,East,88,0.0,0.0,94,0.00,FEW,,0.00,72.0,WeatherDisplay:10.37,2013-03-05 07:40:00,
2013-03-05 07:45:00,29.8,28.5,29.73,East,89,0.0,0.0,95,0.00,FEW,,0.00,79.0,WeatherDisplay:10.37,2013-03-05 07:45:00,
2013-03-05 07:50:00,30.0,28.5,29.73,East,88,0.0,0.0,94,0.00,FEW,,0.00,91.0,WeatherDisplay:10.37,2013-03-05 07:50:00,
2013-03-05 07:55:00,30.2,28.9,29.73,East,89,0.0,0.0,95,0.00,FEW,,0.00,100.0,WeatherDisplay:10.37,2013-03-05 07:55:00,
2013-03-05 08:00:00,30.4,29.1,29.73,East,89,0.0,0.0,95,0.00,FEW,,0.00,111.0,WeatherDisplay:10.37,2013-03-05 08:00:00,
2013-03-05 08:05:00,30.6,29.3,29.72,East,89,0.0,0.0,95,0.01,RA,,0.01,132.0,WeatherDisplay:10.37,2013-03-05 08:05:00,
2013-03-05 08:10:00,31.0,29.7,29.73,East,89,0.0,0.0,95,0.01,RA,,0.01,146.0,WeatherDisplay:10.37,2013-03-05 08:10:00,
2013-03-05 08:15:00,31.6,30.3,29.72,East,88,0.0,0.0,95,0.01,CLR,,0.01,149.0,WeatherDisplay:10.37,2013-03-05 08:15:00,
2013-03-05 08:20:00,32.2,30.9,29.72,East,89,0.0,0.0,95,0.01,CLR,,0.01,158.0,WeatherDisplay:10.37,2013-03-05 08:20:00,
2013-03-05 08:25:00,32.7,31.4,29.72,East,89,0.0,0.0,95,0.01,CLR,,0.01,169.0,WeatherDisplay:10.37,2013-03-05 08:25:00,
2013-03-05 08:30:00,33.7,32.4,29.72,East,89,0.0,0.0,95,0.01,CLR,,0.01,171.0,WeatherDisplay:10.37,2013-03-05 08:30:00,
2013-03-05 08:35:00,34.1,32.8,29.72,East,89,0.0,0.0,95,0.01,CLR,,0.01,190.0,WeatherDisplay:10.37,2013-03-05 08:35:00,
2013-03-05 08:40:00,34.5,33.2,29.72,East,89,0.0,0.0,95,0.01,CLR,,0.01,202.0,WeatherDisplay:10.37,2013-03-05 08:40:00,
2013-03-05 08:45:00,35.0,33.7,29.72,East,89,0.0,0.0,95,0.01,CLR,,0.01,211.0,WeatherDisplay:10.37,2013-03-05 08:45:00,
2013-03-05 08:50:00,35.7,34.4,29.72,East,88,0.0,0.0,95,0.01,CLR,,0.01,221.0,WeatherDisplay:10.37,2013-03-05 08:50:00,
2013-03-05 08:55:00,36.2,34.9,29.72,East,88,0.0,0.0,95,0.01,CLR,,0.01,232.0,WeatherDisplay:10.37,2013-03-05 08:55:00,
2013-03-05 09:00:00,36.7,35.4,29.72,East,89,0.0,0.0,95,0.01,CLR,,0.01,243.0,WeatherDisplay:10.37,2013-03-05 09:00:00,
2013-03-05 09:05:00,37.5,36.2,29.72,East,89,0.0,0.0,95,0.00,CLR,,0.01,255.0,WeatherDisplay:10.37,2013-03-05 09:05:00,
2013-03-05 09:10:00,38.4,37.1,29.72,East,88,0.0,0.0,95,0.00,CLR,,0.01,267.0,WeatherDisplay:10.37,2013-03-05 09:10:00,
2013-03-05 09:15:00,39.9,38.6,29.71,East,88,0.0,0.0,95,0.00,CLR,,0.01,278.0,WeatherDisplay:10.37,2013-03-05 09:15:00,
2013-03-05 09:20:00,40.4,38.8,29.71,East,89,1.2,1.2,94,0.00,CLR,,0.01,287.0,WeatherDisplay:10.37,2013-03-05 09:20:00,
2013-03-05 09:25:00,40.9,39.3,29.71,East,88,3.5,3.5,94,0.00,CLR,,0.01,301.0,WeatherDisplay:10.37,2013-03-05 09:25:00,
2013-03-05 09:30:00,41.2,39.6,29.71,East,88,2.0,2.0,94,0.00,CLR,,0.01,316.0,WeatherDisplay:10.37,2013-03-05 09:30:00,
2013-03-05 09:35:00,41.6,39.7,29.72,East,89,3.5,3.5,93,0.00,CLR,,0.01,330.0,WeatherDisplay:10.37,2013-03-05 09:35:00,
2013-03-05 09:40:00,42.0,39.8,29.72,East,89,0.0,0.0,92,0.00,CLR,,0.01,341.0,WeatherDisplay:10.37,2013-03-05 09:40:00,
2013-03-05 09:45:00,43.1,40.9,29.71,East,89,0.0,0.0,92,0.00,CLR,,0.01,353.0,WeatherDisplay:10.37,2013-03-05 09:45:00,
2013-03-05 09:50:00,43.8,41.1,29.71,East,89,3.5,3.5,90,0.00,CLR,,0.01,367.0,WeatherDisplay:10.37,2013-03-05 09:50:00,
2013-03-05 09:55:00,44.8,41.5,29.71,ESE,118,5.0,5.0,88,0.00,CLR,,0.01,114.0,WeatherDisplay:10.37,2013-03-05 09:55:00,
2013-03-05 10:00:00,45.5,41.6,29.71,ESE,118,5.8,5.8,86,0.00,SCT,,0.01,109.0,WeatherDisplay:10.37,2013-03-05 10:00:00,
2013-03-05 10:05:00,46.2,41.6,29.71,SE,142,6.9,6.9,84,0.00,BKN,,0.01,308.0,WeatherDisplay:10.37,2013-03-05 10:05:00,
2013-03-05 10:10:00,46.6,41.7,29.71,SE,144,4.6,4.6,83,0.00,SCT,,0.01,403.0,WeatherDisplay:10.37,2013-03-05 10:10:00,
2013-03-05 10:15:00,47.3,42.4,29.71,SSE,149,6.0,6.0,83,0.00,CLR,,0.01,403.0,WeatherDisplay:10.37,2013-03-05 10:15:00,
2013-03-05 10:20:00,47.8,42.3,29.71,SSE,149,5.8,5.8,81,0.00,CLR,,0.01,417.0,WeatherDisplay:10.37,2013-03-05 10:20:00,
2013-03-05 10:25:00,47.9,42.0,29.71,SSE,150,5.8,5.8,80,0.00,CLR,,0.01,427.0,WeatherDisplay:10.37,2013-03-05 10:25:00,
2013-03-05 10:30:00,48.4,42.2,29.71,South,182,1.2,1.2,79,0.00,CLR,,0.01,436.0,WeatherDisplay:10.37,2013-03-05 10:30:00,
2013-03-05 10:35:00,48.6,42.7,29.70,South,174,3.5,3.5,80,0.00,CLR,,0.01,443.0,WeatherDisplay:10.37,2013-03-05 10:35:00,
2013-03-05 10:40:00,49.4,43.2,29.70,SSE,161,2.3,2.3,79,0.00,CLR,,0.01,450.0,WeatherDisplay:10.37,2013-03-05 10:40:00,
2013-03-05 10:45:00,50.2,42.9,29.70,SSE,152,6.9,6.9,76,0.00,CLR,,0.01,461.0,WeatherDisplay:10.37,2013-03-05 10:45:00,
2013-03-05 10:50:00,49.6,42.3,29.70,SSE,152,4.0,4.0,76,0.00,CLR,,0.01,464.0,WeatherDisplay:10.37,2013-03-05 10:50:00,
2013-03-05 10:55:00,50.6,43.3,29.69,SSE,164,4.6,4.6,76,0.00,CLR,,0.01,471.0,WeatherDisplay:10.37,2013-03-05 10:55:00,
2013-03-05 11:00:00,50.6,42.6,29.69,SSE,155,5.8,5.8,74,0.00,CLR,,0.01,476.0,WeatherDisplay:10.37,2013-03-05 11:00:00,
2013-03-05 11:05:00,51.0,43.4,29.69,SSE,153,3.5,3.5,75,0.00,CLR,,0.01,482.0,WeatherDisplay:10.37,2013-03-05 11:05:00,
2013-03-05 11:10:00,51.1,43.1,29.69,SE,137,6.9,6.9,74,0.00,CLR,,0.01,487.0,WeatherDisplay:10.37,2013-03-05 11:10:00,
2013-03-05 11:15:00,51.6,43.2,29.69,South,170,4.6,4.6,73,0.00,CLR,,0.01,489.0,WeatherDisplay:10.37,2013-03-05 11:15:00,
2013-03-05 11:20:00,52.3,43.5,29.69,SE,134,4.6,4.6,72,0.00,CLR,,0.01,492.0,WeatherDisplay:10.37,2013-03-05 11:20:00,
2013-03-05 11:25:00,52.6,43.8,29.69,SE,138,3.0,3.0,72,0.00,CLR,,0.01,501.0,WeatherDisplay:10.37,2013-03-05 11:25:00,
2013-03-05 11:30:00,53.1,44.3,29.68,SE,138,3.5,3.5,72,0.00,CLR,,0.01,504.0,WeatherDisplay:10.37,2013-03-05 11:30:00,
2013-03-05 11:35:00,53.4,43.9,29.68,SE,140,5.8,5.8,70,0.00,CLR,,0.01,508.0,WeatherDisplay:10.37,2013-03-05 11:35:00,
2013-03-05 11:40:00,53.5,44.3,29.68,SE,140,5.0,5.0,71,0.00,CLR,,0.01,508.0,WeatherDisplay:10.37,2013-03-05 11:40:00,
2013-03-05 11:45:00,53.8,44.2,29.68,SE,140,3.5,3.5,70,0.00,CLR,,0.01,513.0,WeatherDisplay:10.37,2013-03-05 11:45:00,
2013-03-05 11:50:00,54.3,44.3,29.68,SE,127,6.9,6.9,69,0.00,CLR,,0.01,513.0,WeatherDisplay:10.37,2013-03-05 11:50:00,
2013-03-05 11:55:00,54.8,44.4,29.68,SSE,150,3.5,3.5,68,0.00,CLR,,0.01,519.0,WeatherDisplay:10.37,2013-03-05 11:55:00,
2013-03-05 12:00:00,55.4,44.6,29.68,SSE,153,6.0,6.0,67,0.00,CLR,,0.01,522.0,WeatherDisplay:10.37,2013-03-05 12:00:00,
2013-03-05 12:05:00,55.7,44.5,29.68,South,169,3.5,3.5,66,0.00,CLR,,0.01,524.0,WeatherDisplay:10.37,2013-03-05 12:05:00,
2013-03-05 12:10:00,56.3,45.1,29.67,SSE,167,8.1,8.1,66,0.00,CLR,,0.01,515.0,WeatherDisplay:10.37,2013-03-05 12:10:00,
2013-03-05 12:15:00,56.4,45.2,29.67,SSE,164,6.9,6.9,66,0.00,CLR,,0.01,522.0,WeatherDisplay:10.37,2013-03-05 12:15:00,
2013-03-05 12:20:00,56.2,44.6,29.67,SSE,164,2.3,2.3,65,0.00,CLR,,0.01,529.0,WeatherDisplay:10.37,2013-03-05 12:20:00,
2013-03-05 12:25:00,57.2,45.5,29.67,SSE,153,4.6,4.6,65,0.00,CLR,,0.01,520.0,WeatherDisplay:10.37,2013-03-05 12:25:00,
2013-03-05 12:30:00,57.2,44.7,29.67,SW,214,3.5,3.5,63,0.00,CLR,,0.01,526.0,WeatherDisplay:10.37,2013-03-05 12:30:00,
2013-03-05 12:35:00,57.8,44.9,29.66,South,187,6.0,6.0,62,0.00,CLR,,0.01,512.0,WeatherDisplay:10.37,2013-03-05 12:35:00,
2013-03-05 12:40:00,58.5,45.5,29.66,SE,136,6.9,6.9,62,0.00,CLR,,0.01,526.0,WeatherDisplay:10.37,2013-03-05 12:40:00,
2013-03-05 12:45:00,58.9,45.0,29.66,SSE,149,5.0,5.0,60,0.00,CLR,,0.01,473.0,WeatherDisplay:10.37,2013-03-05 12:45:00,
2013-03-05 12:50:00,58.6,44.8,29.66,South,182,9.2,9.2,60,0.00,CLR,,0.01,520.0,WeatherDisplay:10.37,2013-03-05 12:50:00,
2013-03-05 12:55:00,58.7,44.8,29.65,South,188,4.6,4.6,60,0.00,CLR,,0.01,517.0,WeatherDisplay:10.37,2013-03-05 12:55:00,
2013-03-05 13:00:00,58.9,45.0,29.65,South,173,3.5,3.5,60,0.00,CLR,,0.01,522.0,WeatherDisplay:10.37,2013-03-05 13:00:00,
2013-03-05 13:05:00,59.2,44.9,29.65,South,171,10.4,10.4,59,0.00,CLR,,0.01,512.0,WeatherDisplay:10.37,2013-03-05 13:05:00,
2013-03-05 13:10:00,59.3,45.0,29.65,South,169,0.0,0.0,59,0.00,CLR,,0.01,517.0,WeatherDisplay:10.37,2013-03-05 13:10:00,
2013-03-05 13:15:00,59.7,44.4,29.65,ESE,114,11.5,11.5,57,0.00,CLR,,0.01,512.0,WeatherDisplay:10.37,2013-03-05 13:15:00,
2013-03-05 13:20:00,59.2,44.0,29.64,SE,136,6.9,6.9,57,0.00,CLR,,0.01,513.0,WeatherDisplay:10.37,2013-03-05 13:20:00,
2013-03-05 13:25:00,59.2,44.4,29.64,SE,125,11.5,11.5,58,0.00,CLR,,0.01,504.0,WeatherDisplay:10.37,2013-03-05 13:25:00,
2013-03-05 13:30:00,59.1,44.3,29.64,SSE,167,8.1,8.1,58,0.00,CLR,,0.01,501.0,WeatherDisplay:10.37,2013-03-05 13:30:00,
2013-03-05 13:35:00,59.4,45.1,29.64,SE,132,9.2,9.2,59,0.00,CLR,,0.01,497.0,WeatherDisplay:10.37,2013-03-05 13:35:00,
2013-03-05 13:40:00,59.3,44.5,29.64,SE,131,4.6,4.6,58,0.00,CLR,,0.01,490.0,WeatherDisplay:10.37,2013-03-05 13:40:00,
2013-03-05 13:45:00,59.1,43.9,29.63,SE,144,11.5,11.5,57,0.00,CLR,,0.01,485.0,WeatherDisplay:10.37,2013-03-05 13:45:00,
2013-03-05 13:50:00,59.5,44.7,29.63,SSW,194,5.0,5.0,58,0.00,CLR,,0.01,480.0,WeatherDisplay:10.37,2013-03-05 13:50:00,
2013-03-05 13:55:00,59.3,44.1,29.63,SSE,153,8.1,8.1,57,0.00,CLR,,0.01,475.0,WeatherDisplay:10.37,2013-03-05 13:55:00,
2013-03-05 14:00:00,59.1,44.3,29.63,SE,142,11.5,11.5,58,0.00,CLR,,0.01,469.0,WeatherDisplay:10.37,2013-03-05 14:00:00,
2013-03-05 14:05:00,59.1,44.3,29.63,South,183,9.2,9.2,58,0.00,CLR,,0.01,459.0,WeatherDisplay:10.37,2013-03-05 14:05:00,
2013-03-05 14:10:00,59.5,44.2,29.63,SSE,161,10.4,10.4,57,0.00,CLR,,0.01,448.0,WeatherDisplay:10.37,2013-03-05 14:10:00,
2013-03-05 14:15:00,59.0,44.2,29.63,SSW,196,5.8,5.8,58,0.00,CLR,,0.01,439.0,WeatherDisplay:10.37,2013-03-05 14:15:00,
2013-03-05 14:20:00,59.4,44.6,29.62,South,178,3.5,3.5,58,0.00,CLR,,0.01,432.0,WeatherDisplay:10.37,2013-03-05 14:20:00,
2013-03-05 14:25:00,59.6,44.8,29.62,South,171,7.0,7.0,58,0.00,CLR,,0.01,422.0,WeatherDisplay:10.37,2013-03-05 14:25:00,
2013-03-05 14:30:00,59.4,44.6,29.62,SSE,155,3.5,3.5,58,0.00,CLR,,0.01,418.0,WeatherDisplay:10.37,2013-03-05 14:30:00,
2013-03-05 14:35:00,59.6,44.8,29.62,SE,135,6.9,6.9,58,0.00,CLR,,0.01,408.0,WeatherDisplay:10.37,2013-03-05 14:35:00,
2013-03-05 14:40:00,59.3,44.5,29.62,SE,134,5.8,5.8,58,0.00,CLR,,0.01,397.0,WeatherDisplay:10.37,2013-03-05 14:40:00,
2013-03-05 14:45:00,59.5,45.2,29.62,South,180,5.8,5.8,59,0.00,CLR,,0.01,390.0,WeatherDisplay:10.37,2013-03-05 14:45:00,
2013-03-05 14:50:00,60.0,45.6,29.62,SSE,164,5.8,5.8,59,0.00,CLR,,0.01,378.0,WeatherDisplay:10.37,2013-03-05 14:50:00,
2013-03-05 14:55:00,59.6,44.8,29.62,SE,130,5.8,5.8,58,0.00,CLR,,0.01,371.0,WeatherDisplay:10.37,2013-03-05 14:55:00,
2013-03-05 15:00:00,59.3,44.5,29.62,South,176,6.9,6.9,58,0.00,CLR,,0.01,362.0,WeatherDisplay:10.37,2013-03-05 15:00:00,
2013-03-05 15:05:00,59.1,44.3,29.62,SE,138,5.8,5.8,58,0.00,CLR,,0.01,348.0,WeatherDisplay:10.37,2013-03-05 15:05:00,
2013-03-05 15:10:00,59.5,45.2,29.62,SSW,193,10.4,10.4,59,0.00,CLR,,0.01,339.0,WeatherDisplay:10.37,2013-03-05 15:10:00,
2013-03-05 15:15:00,59.4,45.1,29.62,South,171,1.2,1.2,59,0.00,CLR,,0.01,329.0,WeatherDisplay:10.37,2013-03-05 15:15:00,
2013-03-05 15:20:00,59.3,45.0,29.62,SSE,167,9.2,9.2,59,0.00,CLR,,0.01,313.0,WeatherDisplay:10.37,2013-03-05 15:20:00,
2013-03-05 15:25:00,59.3,45.4,29.61,SSW,211,4.6,4.6,60,0.00,CLR,,0.01,302.0,WeatherDisplay:10.37,2013-03-05 15:25:00,
2013-03-05 15:30:00,59.4,45.1,29.61,SSW,203,3.5,3.5,59,0.00,CLR,,0.01,290.0,WeatherDisplay:10.37,2013-03-05 15:30:00,
2013-03-05 15:35:00,59.1,44.8,29.61,SSE,165,2.3,2.3,59,0.00,CLR,,0.01,283.0,WeatherDisplay:10.37,2013-03-05 15:35:00,
2013-03-05 15:40:00,59.1,44.8,29.62,SSE,157,3.5,3.5,59,0.00,CLR,,0.01,272.0,WeatherDisplay:10.37,2013-03-05 15:40:00,
2013-03-05 15:45:00,58.9,44.1,29.61,SE,134,6.9,6.9,58,0.00,CLR,,0.01,258.0,WeatherDisplay:10.37,2013-03-05 15:45:00,
2013-03-05 15:50:00,58.5,44.2,29.61,SE,138,10.4,10.4,59,0.00,CLR,,0.01,250.0,WeatherDisplay:10.37,2013-03-05 15:50:00,
2013-03-05 15:55:00,58.4,44.6,29.62,East,89,9.2,9.2,60,0.00,CLR,,0.01,237.0,WeatherDisplay:10.37,2013-03-05 15:55:00,
2013-03-05 16:00:00,58.4,44.1,29.62,SSE,152,11.5,11.5,59,0.00,CLR,,0.01,220.0,WeatherDisplay:10.37,2013-03-05 16:00:00,
2013-03-05 16:05:00,58.1,43.8,29.62,ESE,123,5.0,5.0,59,0.00,CLR,,0.01,211.0,WeatherDisplay:10.37,2013-03-05 16:05:00,
2013-03-05 16:10:00,58.2,43.9,29.62,ESE,122,4.6,4.6,59,0.00,CLR,,0.01,199.0,WeatherDisplay:10.37,2013-03-05 16:10:00,
2013-03-05 16:15:00,58.1,43.8,29.62,SSE,159,3.5,3.5,59,0.00,CLR,,0.01,186.0,WeatherDisplay:10.37,2013-03-05 16:15:00,
2013-03-05 16:20:00,58.0,43.7,29.62,SE,142,7.0,7.0,59,0.00,CLR,,0.01,160.0,WeatherDisplay:10.37,2013-03-05 16:20:00,
2013-03-05 16:25:00,57.9,43.7,29.62,ESE,108,3.5,3.5,59,0.00,CLR,,0.01,165.0,WeatherDisplay:10.37,2013-03-05 16:25:00,
2013-03-05 16:30:00,57.8,44.0,29.62,ESE,115,3.5,3.5,60,0.00,CLR,,0.01,153.0,WeatherDisplay:10.37,2013-03-05 16:30:00,
2013-03-05 16:35:00,57.7,43.9,29.61,SE,125,8.1,8.1,60,0.00,CLR,,0.01,142.0,WeatherDisplay:10.37,2013-03-05 16:35:00,
2013-03-05 16:40:00,57.6,43.8,29.61,ESE,114,5.8,5.8,60,0.00,CLR,,0.01,130.0,WeatherDisplay:10.37,2013-03-05 16:40:00,
2013-03-05 16:45:00,57.5,43.3,29.61,ESE,111,3.5,3.5,59,0.00,CLR,,0.01,120.0,WeatherDisplay:10.37,2013-03-05 16:45:00,
2013-03-05 16:50:00,57.3,43.5,29.61,ESE,109,3.5,3.5,60,0.00,CLR,,0.01,105.0,WeatherDisplay:10.37,2013-03-05 16:50:00,
2013-03-05 16:55:00,57.2,43.4,29.61,ESE,110,3.5,3.5,60,0.00,CLR,,0.01,93.0,WeatherDisplay:10.37,2013-03-05 16:55:00,
2013-03-05 17:00:00,57.1,43.3,29.61,ESE,111,2.3,2.3,60,0.00,FEW,,0.01,79.0,WeatherDisplay:10.37,2013-03-05 17:00:00,
2013-03-05 17:05:00,57.0,43.2,29.61,ESE,113,4.6,4.6,60,0.00,SCT,,0.01,56.0,WeatherDisplay:10.37,2013-03-05 17:05:00,
2013-03-05 17:10:00,56.8,43.5,29.61,ESE,113,3.5,3.5,61,0.00,BKN,,0.01,33.0,WeatherDisplay:10.37,2013-03-05 17:10:00,
2013-03-05 17:15:00,56.6,43.3,29.61,ESE,113,2.3,2.3,61,0.00,BKN,,0.01,32.0,WeatherDisplay:10.37,2013-03-05 17:15:00,
2013-03-05 17:20:00,56.4,43.1,29.61,ESE,113,4.6,4.6,61,0.00,BKN,,0.01,30.0,WeatherDisplay:10.37,2013-03-05 17:20:00,
2013-03-05 17:25:00,56.0,43.2,29.61,ESE,113,2.3,0.0,62,0.00,BKN,,0.01,21.0,WeatherDisplay:10.37,2013-03-05 17:25:00,
2013-03-05 17:30:00,55.7,43.3,29.61,ESE,113,1.2,1.2,63,0.00,BKN,,0.01,16.0,WeatherDisplay:10.37,2013-03-05 17:30:00,
2013-03-05 17:35:00,55.5,43.1,29.61,ESE,113,0.0,0.0,63,0.00,BKN,,0.01,11.0,WeatherDisplay:10.37,2013-03-05 17:35:00,
2013-03-05 17:40:00,55.3,43.3,29.61,ESE,113,0.0,0.0,64,0.00,BKN,,0.01,9.0,WeatherDisplay:10.37,2013-03-05 17:40:00,
2013-03-05 17:45:00,55.1,43.1,29.61,ESE,113,0.0,0.0,64,0.00,BKN,,0.01,7.0,WeatherDisplay:10.37,2013-03-05 17:45:00,
2013-03-05 17:50:00,54.8,43.3,29.62,ESE,113,0.0,0.0,65,0.00,OVC,,0.01,0.0,WeatherDisplay:10.37,2013-03-05 17:50:00,
2013-03-05 17:55:00,54.3,42.8,29.62,ESE,113,0.0,0.0,65,0.00,OVC,,0.01,0.0,WeatherDisplay:10.37,2013-03-05 17:55:00,
2013-03-05 18:00:00,53.8,42.7,29.62,ESE,113,0.0,0.0,66,0.00,CLR,,0.01,0.0,WeatherDisplay:10.37,2013-03-05 18:00:00,
2013-03-05 18:05:00,53.3,42.2,29.62,ESE,113,0.0,0.0,66,0.00,CLR,,0.01,0.0,WeatherDisplay:10.37,2013-03-05 18:05:00,
2013-03-05 18:10:00,52.9,42.2,29.62,ESE,113,0.0,0.0,67,0.00,CLR,,0.01,0.0,WeatherDisplay:10.37,2013-03-05 18:10:00,
2013-03-05 18:15:00,52.6,41.9,29.62,ESE,113,0.0,0.0,67,0.00,CLR,,0.01,0.0,WeatherDisplay:10.37,2013-03-05 18:15:00,
2013-03-05 18:20:00,52.0,42.1,29.62,ESE,113,0.0,0.0,69,0.00,CLR,,0.01,0.0,WeatherDisplay:10.37,2013-03-05 18:20:00,
2013-03-05 18:25:00,51.6,41.8,29.62,ESE,113,0.0,0.0,69,0.00,CLR,,0.01,0.0,WeatherDisplay:10.37,2013-03-05 18:25:00,
2013-03-05 18:30:00,51.2,41.7,29.62,ESE,113,0.0,0.0,70,0.00,CLR,,0.01,0.0,WeatherDisplay:10.37,2013-03-05 18:30:00,
2013-03-05 18:35:00,50.8,41.7,29.62,ESE,113,0.0,0.0,71,0.00,CLR,,0.01,0.0,WeatherDisplay:10.37,2013-03-05 18:35:00,
2013-03-05 18:40:00,50.5,41.4,29.62,ESE,113,0.0,0.0,71,0.00,CLR,,0.01,0.0,WeatherDisplay:10.37,2013-03-05 18:40:00,
2013-03-05 18:45:00,50.1,41.1,29.62,ESE,113,0.0,0.0,71,0.00,CLR,,0.01,0.0,WeatherDisplay:10.37,2013-03-05 18:45:00,
2013-03-05 18:50:00,49.7,41.0,29.63,ESE,113,0.0,0.0,72,0.00,CLR,,0.01,0.0,WeatherDisplay:10.37,2013-03-05 18:50:00,
2013-03-05 18:55:00,49.3,40.7,29.63,ESE,113,0.0,0.0,72,0.00,CLR,,0.01,0.0,WeatherDisplay:10.37,2013-03-05 18:55:00,
2013-03-05 19:00:00,48.9,40.6,29.63,ESE,113,0.0,0.0,73,0.00,CLR,,0.01,0.0,WeatherDisplay:10.37,2013-03-05 19:00:00,
2013-03-05 19:05:00,48.5,40.2,29.63,ESE,113,0.0,0.0,73,0.00,CLR,,0.01,0.0,WeatherDisplay:10.37,2013-03-05 19:05:00,
2013-03-05 19:10:00,48.1,40.5,29.63,ESE,113,0.0,0.0,75,0.00,CLR,,0.01,0.0,WeatherDisplay:10.37,2013-03-05 19:10:00,
2013-03-05 19:15:00,47.6,40.4,29.63,ESE,113,0.0,0.0,76,0.00,CLR,,0.01,0.0,WeatherDisplay:10.37,2013-03-05 19:15:00,
2013-03-05 19:20:00,47.3,40.5,29.63,ESE,113,2.3,2.3,77,0.00,CLR,,0.01,0.0,WeatherDisplay:10.37,2013-03-05 19:20:00,
2013-03-05 19:25:00,47.0,40.2,29.63,ESE,113,2.3,2.3,77,0.00,CLR,,0.01,0.0,WeatherDisplay:10.37,2013-03-05 19:25:00,
2013-03-05 19:30:00,46.8,40.3,29.63,ESE,113,3.5,3.5,78,0.00,CLR,,0.01,0.0,WeatherDisplay:10.37,2013-03-05 19:30:00,
2013-03-05 19:35:00,46.8,40.6,29.63,ESE,113,3.5,3.5,79,0.00,CLR,,0.01,0.0,WeatherDisplay:10.37,2013-03-05 19:35:00,
2013-03-05 19:40:00,46.9,40.7,29.64,ESE,113,2.3,2.3,79,0.00,CLR,,0.01,0.0,WeatherDisplay:10.37,2013-03-05 19:40:00,
2013-03-05 19:45:00,46.9,40.7,29.63,ESE,113,0.0,0.0,79,0.00,CLR,,0.01,0.0,WeatherDisplay:10.37,2013-03-05 19:45:00,
2013-03-05 19:50:00,46.9,40.7,29.63,ESE,113,0.0,0.0,79,0.00,CLR,,0.01,0.0,WeatherDisplay:10.37,2013-03-05 19:50:00,
2013-03-05 19:55:00,46.9,40.7,29.63,ESE,113,0.0,0.0,79,0.00,CLR,,0.01,0.0,WeatherDisplay:10.37,2013-03-05 19:55:00,
2013-03-05 20:00:00,46.9,40.7,29.63,ESE,113,0.0,0.0,79,0.00,CLR,,0.01,0.0,WeatherDisplay:10.37,2013-03-05 20:00:00,
2013-03-05 20:05:00,46.9,40.7,29.63,ESE,113,0.0,0.0,79,0.00,CLR,,0.01,0.0,WeatherDisplay:10.37,2013-03-05 20:05:00,
2013-03-05 20:10:00,46.9,40.7,29.63,ESE,113,1.2,0.0,79,0.00,CLR,,0.01,0.0,WeatherDisplay:10.37,2013-03-05 20:10:00,
2013-03-05 20:15:00,46.9,40.7,29.63,ESE,113,0.0,0.0,79,0.00,CLR,,0.01,0.0,WeatherDisplay:10.37,2013-03-05 20:15:00,
2013-03-05 20:20:00,46.9,40.7,29.63,ESE,113,0.0,0.0,79,0.00,CLR,,0.01,0.0,WeatherDisplay:10.37,2013-03-05 20:20:00,
2013-03-05 20:25:00,46.8,40.6,29.63,ESE,113,1.2,0.0,79,0.00,CLR,,0.01,0.0,WeatherDisplay:10.37,2013-03-05 20:25:00,
2013-03-05 20:30:00,46.7,40.5,29.63,ESE,113,0.0,0.0,79,0.00,CLR,,0.01,0.0,WeatherDisplay:10.37,2013-03-05 20:30:00,
2013-03-05 20:35:00,46.7,40.5,29.63,ESE,113,0.0,0.0,79,0.00,CLR,,0.01,0.0,WeatherDisplay:10.37,2013-03-05 20:35:00,
2013-03-05 20:40:00,46.6,40.8,29.63,ESE,113,0.0,0.0,80,0.00,CLR,,0.01,0.0,WeatherDisplay:10.37,2013-03-05 20:40:00,
2013-03-05 20:45:00,46.5,40.7,29.63,ESE,113,0.0,0.0,80,0.00,CLR,,0.01,0.0,WeatherDisplay:10.37,2013-03-05 20:45:00,
2013-03-05 20:50:00,46.4,40.6,29.63,ESE,113,0.0,0.0,80,0.00,CLR,,0.01,0.0,WeatherDisplay:10.37,2013-03-05 20:50:00,
2013-03-05 20:55:00,46.3,40.5,29.63,ESE,113,0.0,0.0,80,0.00,CLR,,0.01,0.0,WeatherDisplay:10.37,2013-03-05 20:55:00,
2013-03-05 21:00:00,46.2,40.4,29.63,ESE,113,0.0,0.0,80,0.00,CLR,,0.01,0.0,WeatherDisplay:10.37,2013-03-05 21:00:00,
2013-03-05 21:05:00,46.1,40.3,29.63,ESE,113,0.0,0.0,80,0.00,CLR,,0.01,0.0,WeatherDisplay:10.37,2013-03-05 21:05:00,
2013-03-05 21:10:00,46.0,40.2,29.63,ESE,113,0.0,0.0,80,0.00,CLR,,0.01,0.0,WeatherDisplay:10.37,2013-03-05 21:10:00,
2013-03-05 21:15:00,45.8,40.0,29.63,ESE,113,0.0,0.0,80,0.00,CLR,,0.01,0.0,WeatherDisplay:10.37,2013-03-05 21:15:00,
2013-03-05 21:20:00,45.6,39.8,29.63,ESE,113,0.0,0.0,80,0.00,CLR,,0.01,0.0,WeatherDisplay:10.37,2013-03-05 21:20:00,
2013-03-05 21:25:00,45.4,39.6,29.63,ESE,113,0.0,0.0,80,0.00,CLR,,0.01,0.0,WeatherDisplay:10.37,2013-03-05 21:25:00,
2013-03-05 21:30:00,45.2,39.7,29.63,ESE,113,0.0,0.0,81,0.00,CLR,,0.01,0.0,WeatherDisplay:10.37,2013-03-05 21:30:00,
2013-03-05 21:35:00,45.0,39.5,29.63,ESE,113,0.0,0.0,81,0.00,CLR,,0.01,0.0,WeatherDisplay:10.37,2013-03-05 21:35:00,
2013-03-05 21:40:00,44.8,39.3,29.63,ESE,113,0.0,0.0,81,0.00,CLR,,0.01,0.0,WeatherDisplay:10.37,2013-03-05 21:40:00,
2013-03-05 21:45:00,44.6,39.4,29.63,ESE,113,2.3,0.0,82,0.00,CLR,,0.01,0.0,WeatherDisplay:10.37,2013-03-05 21:45:00,
2013-03-05 21:50:00,44.5,39.3,29.63,ESE,113,0.0,0.0,82,0.00,CLR,,0.01,0.0,WeatherDisplay:10.37,2013-03-05 21:50:00,
2013-03-05 21:55:00,44.4,39.2,29.63,ESE,113,2.3,0.0,82,0.00,CLR,,0.01,0.0,WeatherDisplay:10.37,2013-03-05 21:55:00,
2013-03-05 22:00:00,44.2,39.1,29.63,ESE,113,0.0,0.0,82,0.00,CLR,,0.01,0.0,WeatherDisplay:10.37,2013-03-05 22:00:00,
2013-03-05 22:05:00,44.1,39.3,29.62,ESE,113,0.0,0.0,83,0.00,CLR,,0.01,0.0,WeatherDisplay:10.37,2013-03-05 22:05:00,
2013-03-05 22:10:00,44.0,39.2,29.62,ESE,113,0.0,0.0,83,0.00,CLR,,0.01,0.0,WeatherDisplay:10.37,2013-03-05 22:10:00,
2013-03-05 22:15:00,43.8,39.0,29.62,ESE,113,0.0,0.0,83,0.00,CLR,,0.01,0.0,WeatherDisplay:10.37,2013-03-05 22:15:00,
2013-03-05 22:20:00,43.6,38.8,29.62,ESE,113,0.0,0.0,83,0.00,CLR,,0.01,0.0,WeatherDisplay:10.37,2013-03-05 22:20:00,
2013-03-05 22:25:00,43.5,38.7,29.62,ESE,113,0.0,0.0,83,0.00,CLR,,0.01,0.0,WeatherDisplay:10.37,2013-03-05 22:25:00,
2013-03-05 22:30:00,43.3,38.5,29.62,ESE,113,0.0,0.0,83,0.00,CLR,,0.01,0.0,WeatherDisplay:10.37,2013-03-05 22:30:00,
2013-03-05 22:35:00,43.1,38.3,29.62,ESE,113,0.0,0.0,83,0.00,CLR,,0.01,0.0,WeatherDisplay:10.37,2013-03-05 22:35:00,
2013-03-05 22:40:00,43.0,38.5,29.62,ESE,113,0.0,0.0,84,0.00,CLR,,0.01,0.0,WeatherDisplay:10.37,2013-03-05 22:40:00,
2013-03-05 22:45:00,42.9,38.4,29.61,ESE,113,0.0,0.0,84,0.00,CLR,,0.01,0.0,WeatherDisplay:10.37,2013-03-05 22:45:00,
2013-03-05 22:50:00,42.8,38.3,29.62,ESE,113,0.0,0.0,84,0.00,CLR,,0.01,0.0,WeatherDisplay:10.37,2013-03-05 22:50:00,
2013-03-05 22:55:00,42.7,38.2,29.61,ESE,113,0.0,0.0,84,0.00,CLR,,0.01,0.0,WeatherDisplay:10.37,2013-03-05 22:55:00,
2013-03-05 23:00:00,42.7,38.5,29.61,ESE,113,0.0,0.0,85,0.00,CLR,,0.01,0.0,WeatherDisplay:10.37,2013-03-05 23:00:00,
2013-03-05 23:05:00,42.6,38.4,29.61,ESE,113,1.0,1.0,85,0.00,CLR,,0.01,0.0,WeatherDisplay:10.37,2013-03-05 23:05:00,
2013-03-05 23:10:00,42.6,38.4,29.61,ESE,113,3.5,0.0,85,0.00,CLR,,0.01,0.0,WeatherDisplay:10.37,2013-03-05 23:10:00,
2013-03-05 23:15:00,42.6,38.4,29.61,ESE,113,1.2,1.2,85,0.00,CLR,,0.01,0.0,WeatherDisplay:10.37,2013-03-05 23:15:00,
2013-03-05 23:20:00,42.6,38.4,29.61,ESE,113,0.0,0.0,85,0.00,CLR,,0.01,0.0,WeatherDisplay:10.37,2013-03-05 23:20:00,
2013-03-05 23:25:00,42.5,38.3,29.61,ESE,113,0.0,0.0,85,0.00,CLR,,0.01,0.0,WeatherDisplay:10.37,2013-03-05 23:25:00,
2013-03-05 23:30:00,42.5,38.3,29.61,ESE,113,1.2,1.2,85,0.00,CLR,,0.01,0.0,WeatherDisplay:10.37,2013-03-05 23:30:00,
2013-03-05 23:35:00,42.4,38.5,29.60,ESE,113,0.0,0.0,86,0.00,CLR,,0.01,0.0,WeatherDisplay:10.37,2013-03-05 23:35:00,
2013-03-05 23:40:00,42.3,38.4,29.60,ESE,113,1.2,1.2,86,0.00,CLR,,0.01,0.0,WeatherDisplay:10.37,2013-03-05 23:40:00,
2013-03-05 23:45:00,42.2,38.0,29.60,ESE,113,2.3,2.3,85,0.00,CLR,,0.01,0.0,WeatherDisplay:10.37,2013-03-05 23:45:00,
2013-03-05 23:50:00,42.2,38.3,29.60,ESE,113,0.0,0.0,86,0.00,CLR,,0.01,0.0,WeatherDisplay:10.37,2013-03-05 23:50:00,
2013-03-05 23:55:00,42.2,38.3,29.60,ESE,113,0.0,0.0,86,0.00,CLR,,0.01,0.0,WeatherDisplay:10.37,2013-03-05 23:55:00,